Change the Weather History Date:

Monday, January 14, 2013

  Actual Average Record
Temperature  
Mean Temperature 25 °F -  
Max Temperature 31 °F 36 °F 61 °F (1999)
Min Temperature 19 °F 26 °F 6 °F (2007)
Degree Days  
Heating Degree Days 40    
Moisture  
Dew Point 21 °F    
Average Humidity 83    
Maximum Humidity 95    
Minimum Humidity 63    
Precipitation  
Precipitation 0.00 in - - ()
Sea Level Pressure  
Sea Level Pressure 30.43 in    
Wind  
Wind Speed 3 mph (WNW)    
Max Wind Speed 7 mph    
Max Gust Speed -    
Visibility 13 miles    
Events      
Averages and records for this station are not official NWS values.
T = Trace of Precipitation, MM = Missing Value Source: NWS Daily Summary

Daily Weather History Graph

Daily Weather History Graph

Search for Another Location

Airport or City:

Trip Planner

Search our weather history database for the weather conditions in past years. The results will help you decide how hot, cold, wet, or windy it might be!

Date:

Astronomy

Jan. 14, 2013 Rise Set
Actual Time 7:38 AM PST 4:37 PM PST
Civil Twilight 7:04 AM PST 5:11 PM PST
Nautical Twilight 6:27 AM PST 5:48 PM PST
Astronomical Twilight 5:50 AM PST 6:24 PM PST
Moon 9:00 AM PST (1/14) 8:44 PM PST (1/14)
Length of Visible Light 10h 06m
Length of Day
8h 58m
Waxing Crescent, 12% of the Moon is Illuminated
Jan 14
Waxing Crescent
Jan 18
First Quarter
Jan 26
Full
Feb 3
Last Quarter
Feb 9
New

Hourly Weather History & Observations

Time (PST) Temp. Windchill Dew Point Humidity Pressure Visibility Wind Dir Wind Speed Gust Speed Precip Events Conditions
12:50 AM 21.4 °F - 18.7 °F 89% 30.47 in 15.0 mi NE 2.3 mph - N/A   Overcast
1:50 AM 19.8 °F - 18.1 °F 93% 30.47 in 15.0 mi NW 2.3 mph - N/A   Overcast
2:50 AM 21.6 °F 15.3 °F 18.9 °F 89% 30.47 in 15.0 mi WNW 4.6 mph - N/A   Overcast
3:50 AM 20.7 °F 15.8 °F 18.3 °F 91% 30.45 in 15.0 mi NW 3.5 mph - N/A   Overcast
4:50 AM 21.6 °F 16.8 °F 19.9 °F 93% 30.44 in 15.0 mi WNW 3.5 mph - N/A   Overcast
5:50 AM 23.7 °F 19.3 °F 20.7 °F 88% 30.42 in 15.0 mi SW 3.5 mph - N/A   Overcast
6:50 AM 23.4 °F 18.9 °F 21.0 °F 91% 30.43 in 15.0 mi SSW 3.5 mph - N/A   Overcast
7:50 AM 23.7 °F - 20.8 °F 89% 30.43 in 12.0 mi WSW 2.3 mph - N/A   Overcast
8:50 AM 24.3 °F 18.4 °F 21.0 °F 87% 30.43 in 12.0 mi SW 4.6 mph - N/A   Overcast
9:50 AM 25.2 °F 20.9 °F 21.2 °F 85% 30.39 in 12.0 mi North 3.5 mph - N/A   Overcast
10:50 AM 26.6 °F 22.6 °F 21.0 °F 79% 30.39 in 15.0 mi NNW 3.5 mph - N/A   Mostly Cloudy
11:50 AM 29.1 °F 24.1 °F 21.0 °F 72% 30.38 in 12.0 mi NNW 4.6 mph - N/A   Scattered Clouds
12:50 PM 30.0 °F 24.1 °F 21.4 °F 70% 30.37 in 15.0 mi North 5.8 mph - N/A   Scattered Clouds
1:50 PM 31.8 °F 28.5 °F 20.5 °F 63% 30.37 in 12.0 mi North 3.5 mph - N/A   Scattered Clouds
2:50 PM 31.8 °F - 21.2 °F 65% 30.39 in 12.0 mi West 2.3 mph - N/A   Mostly Cloudy
3:50 PM 30.9 °F 27.5 °F 21.9 °F 69% 30.41 in 12.0 mi WNW 3.5 mph - N/A   Mostly Cloudy
4:50 PM 26.8 °F 19.3 °F 21.7 °F 81% 30.42 in 12.0 mi WNW 6.9 mph - N/A   Mostly Cloudy
5:50 PM 27.0 °F 19.5 °F 22.3 °F 83% 30.43 in 12.0 mi West 6.9 mph - N/A   Mostly Cloudy
6:50 PM 25.5 °F 18.7 °F 21.6 °F 85% 30.44 in 12.0 mi West 5.8 mph - N/A   Mostly Cloudy
10:50 PM 22.3 °F - 20.7 °F 93% 30.50 in 10.0 mi South 2.3 mph - N/A   Overcast
11:50 PM 20.8 °F - 19.6 °F 95% 30.51 in 15.0 mi NW 2.3 mph - N/A   Overcast